{"data":{"norad_id":66432,"epoch":"2026-09-20T08:12:57.636000Z","epoch_age_seconds":107016,"freshness":"FRESH","line1":"1 66432U 25259L   26263.34233375  .00008274  00000+0  30981-3 0  9997","line2":"2 66432  42.9979 254.8129 0000594 290.1257  69.9531 15.27583099 49261","mean_motion":15.27583099,"eccentricity":5.94e-5,"inclination_deg":42.9979,"raan_deg":254.8129,"arg_perigee_deg":290.1257,"mean_anomaly_deg":69.9531,"bstar":0.00030981,"rev_number":4926,"period_min":94.266557475182,"perigee_km":482.63226263158,"apogee_km":483.44737043738,"semimajor_km":6861.1768165345,"source":"CELESTRAK","updated_at":"2026-09-21T09:00:35.907977Z"}}